Wind_Speed
67 68 68 67 68 70 70 71 70 68 65 61 55 50 48 46 45 48 48 46 44 42 41 41 41 39 39 39 40 38 36 35 34 33 32 32 32 33 34 34 34 34 34 34 34 34 33 34 34 34 34 35 38 41 44 47 51 53 55 58 61 65 72 78 84 91 102 112 120 127 134 137 136 134 131 126 121 117 113 109 105 101 96 93 91
68 68 68 68 68 69 70 70 70 67 64 61 55 50 48 46 44 46 47 44 42 41 40 40 40 39 38 39 39 38 36 34 33 32 32 32 32 33 33 34 34 34 34 35 35 34 34 34 34 33 33 33 35 37 41 44 48 51 53 55 58 61 65 71 77 82 88 98 110 120 129 135 137 138 137 134 128 123 120 117 113 109 104 99 95
69 68 68 68 68 69 69 69 69 66 64 60 55 50 47 44 43 45 45 42 41 40 39 40 39 38 38 38 39 38 36 34 33 32 31 32 32 33 33 34 35 35 34 35 35 35 35 34 34 33 32 32 33 34 37 41 44 47 50 53 55 58 61 66 71 76 80 86 96 109 120 129 135 140 141 139 135 129 125 122 120 118 114 109 103
70 69 69 68 68 69 69 69 68 66 62 59 56 50 44 43 43 43 42 40 40 40 39 39 39 38 37 38 38 38 36 34 33 32 31 31 32 33 33 34 35 34 34 34 35 36 36 35 34 33 32 31 31 32 34 37 41 43 46 49 52 55 58 62 66 71 75 79 85 96 109 120 128 136 140 140 137 133 128 125 123 122 121 117 113
70 69 69 69 69 69 68 68 67 65 61 58 55 50 45 44 42 40 39 39 39 39 38 38 38 37 36 37 37 38 36 34 33 32 31 30 31 32 33 34 35 34 33 34 35 36 36 36 34 32 31 30 30 31 32 35 38 41 43 46 49 51 54 58 62 66 71 75 78 84 96 109 118 126 134 138 137 134 129 125 124 124 123 122 119
71 70 70 69 69 68 68 68 66 63 60 57 54 49 44 42 41 40 39 39 38 38 37 37 37 37 36 37 37 37 36 34 32 32 31 30 30 31 32 34 35 34 32 34 35 36 37 37 35 32 31 30 30 29 30 33 35 38 40 43 45 48 51 54 58 63 67 71 75 77 83 96 109 117 124 130 134 134 130 126 125 124 123 122 120
71 70 70 69 69 68 67 67 65 61 58 56 53 48 42 40 42 41 38 37 38 38 36 36 37 36 36 36 36 36 35 33 32 32 31 30 30 30 31 33 34 33 32 33 35 36 37 37 35 33 30 30 30 29 28 30 32 35 37 40 42 44 47 50 53 58 62 66 71 74 76 82 95 108 117 122 127 130 130 128 125 124 124 122 120
72 71 70 70 69 68 67 66 64 60 57 54 51 48 44 41 41 39 37 38 40 38 35 35 36 36 35 35 35 34 33 32 31 31 31 30 29 29 31 33 33 32 31 32 34 36 37 37 36 33 30 29 29 28 27 27 30 32 34 36 38 40 42 45 48 53 58 62 65 70 72 75 83 96 108 116 119 122 125 126 125 125 125 123 120
73 71 71 70 68 67 65 65 62 58 55 52 49 47 45 41 39 39 38 39 40 37 35 34 35 35 35 34 34 33 32 31 31 31 30 29 29 29 30 32 32 31 30 31 34 36 37 38 37 34 31 29 28 27 26 26 27 29 31 32 34 35 37 40 43 46 52 57 61 65 69 72 76 84 96 107 114 116 119 122 123 125 126 125 122
73 72 70 69 68 66 64 63 61 56 54 51 48 45 42 39 38 40 40 38 37 36 34 33 34 35 34 33 33 32 31 31 31 30 29 28 28 29 30 31 31 29 29 31 33 35 37 37 37 35 32 29 28 26 25 26 26 27 28 30 31 31 33 35 38 41 45 50 55 60 64 68 73 78 84 95 106 113 115 117 118 120 124 125 124
72 71 70 68 66 65 63 61 59 56 53 51 48 45 42 39 39 40 39 37 36 35 34 33 33 34 34 33 32 31 31 30 30 29 28 27 28 28 29 30 30 28 28 30 33 34 36 36 36 36 34 30 28 26 25 25 25 25 26 27 28 28 29 31 33 35 38 43 48 54 59 63 68 73 78 83 92 102 110 113 114 116 118 121 123
70 69 68 66 65 63 61 60 59 57 54 51 48 44 42 41 40 39 37 35 35 34 33 33 33 34 33 32 31 31 30 30 29 28 27 27 27 27 28 29 28 27 28 30 32 33 34 35 36 36 35 32 28 26 24 24 24 24 24 25 27 27 27 28 30 32 34 37 42 47 52 57 62 67 71 75 80 88 97 105 110 112 114 116 119
69 67 66 65 63 61 59 58 59 57 54 51 47 43 42 41 40 38 35 35 34 34 33 32 32 33 32 31 30 29 29 29 28 27 26 26 26 26 27 27 27 27 28 30 32 32 32 33 36 36 35 33 30 27 25 23 23 24 24 24 25 26 26 26 27 29 31 34 37 41 45 50 55 59 64 69 73 76 82 90 99 106 110 112 115
66 65 63 62 60 59 58 57 57 56 53 50 45 42 41 40 39 38 36 35 34 33 33 32 31 31 31 30 29 28 29 28 27 26 25 25 26 25 25 26 26 26 28 30 32 32 31 32 35 36 35 34 31 29 26 24 23 23 23 23 23 25 26 26 27 28 30 33 35 38 41 44 48 52 57 62 66 69 72 77 84 94 102 108 112
63 61 60 59 57 57 56 56 56 54 52 49 43 40 39 38 38 38 36 34 33 33 32 31 31 31 30 28 27 27 28 27 26 26 25 25 25 24 23 24 25 26 27 29 31 31 30 31 33 34 35 34 33 30 27 25 23 23 23 22 22 24 26 27 27 27 29 31 34 37 39 41 44 47 51 55 58 62 65 69 73 79 88 98 105
60 58 56 55 55 55 54 54 54 52 51 48 42 37 36 37 38 37 35 34 33 32 31 31 30 30 29 27 26 26 27 26 26 25 24 24 24 22 22 23 24 25 27 29 31 31 30 29 31 33 33 34 33 31 29 27 25 24 23 22 22 23 24 26 27 28 29 30 32 35 38 40 42 44 47 50 53 57 60 63 66 69 75 82 91
56 54 53 52 52 52 51 51 51 50 49 46 40 36 35 35 36 35 34 34 33 32 31 30 29 29 28 26 25 25 26 26 25 24 24 23 22 21 21 22 23 24 27 29 30 30 29 29 30 31 31 32 32 31 29 28 27 25 23 22 22 22 23 25 27 28 29 30 31 33 36 38 41 42 45 47 49 52 54 57 60 63 66 70 76
53 51 50 49 49 49 48 49 49 48 48 44 38 36 36 34 33 34 33 33 32 31 30 30 29 28 27 25 24 25 25 25 24 24 23 22 21 20 20 21 22 24 26 28 29 29 28 28 29 30 30 31 31 31 30 29 28 27 24 22 23 22 22 23 26 28 29 30 31 32 34 36 39 40 42 44 45 47 49 50 53 57 60 63 66
49 48 46 46 46 45 46 47 47 46 46 42 37 36 37 34 32 32 32 31 31 30 29 29 29 27 26 25 24 24 24 24 23 23 23 21 20 18 18 20 22 24 25 26 27 27 27 27 28 29 30 30 30 31 31 30 29 28 26 23 24 24 21 21 23 27 29 30 31 32 33 35 37 38 40 41 43 43 44 45 47 49 52 56 60
45 44 44 44 43 43 44 45 45 45 44 39 35 36 37 35 32 32 31 30 29 29 28 29 28 27 25 24 23 23 24 24 23 23 22 21 18 17 17 20 22 23 23 24 24 26 26 26 27 28 29 30 30 30 30 30 29 29 27 26 26 24 21 20 22 25 28 30 31 32 33 34 36 37 38 39 40 41 41 42 43 44 46 49 52
43 43 43 42 42 42 43 43 43 43 41 36 34 35 36 34 32 31 30 29 28 27 27 28 28 26 25 23 22 22 23 23 23 22 21 20 18 16 17 19 21 21 22 22 23 24 26 26 26 28 29 30 29 28 28 29 30 30 28 28 28 25 21 20 21 23 25 29 31 32 32 34 35 36 38 39 39 41 41 42 42 42 43 44 46
42 42 43 42 42 42 42 42 42 40 36 33 33 34 34 33 31 30 29 27 26 26 27 27 27 26 24 23 22 22 22 23 22 21 20 19 17 16 16 18 19 20 20 21 22 23 24 25 26 27 29 29 27 25 25 27 30 30 29 30 30 27 22 20 21 22 23 26 29 31 32 33 35 36 37 39 40 41 42 42 42 42 42 43 44
42 43 43 43 42 41 41 40 39 35 32 31 32 34 34 32 30 29 28 26 26 26 26 27 27 25 24 22 21 21 22 22 21 20 20 19 17 16 16 16 17 18 18 20 21 22 24 25 26 27 28 27 25 23 23 27 29 30 30 30 30 28 24 21 20 21 23 24 26 29 31 32 34 35 37 38 40 41 41 41 41 41 41 41 42
44 44 44 44 43 42 40 38 34 31 30 31 32 33 33 31 29 28 27 26 25 25 26 26 26 25 23 21 20 21 21 21 20 20 19 19 17 16 15 15 15 16 17 18 20 21 23 24 25 25 25 25 24 23 23 26 28 29 30 30 30 29 26 23 20 20 21 22 23 25 28 31 33 34 36 38 38 39 39 40 40 40 40 40 40
44 45 45 45 43 41 37 34 31 29 29 31 32 32 31 29 28 26 25 24 24 24 25 26 25 24 23 21 20 20 21 20 20 19 19 19 17 16 14 14 14 14 15 16 18 20 22 23 24 24 24 23 22 22 22 24 26 28 29 30 30 29 28 25 22 20 20 21 23 24 25 28 30 32 34 36 36 37 38 38 39 39 40 39 39
46 46 45 43 39 36 33 30 28 28 29 30 30 31 30 28 26 25 24 23 23 24 25 25 25 24 23 20 19 19 20 20 19 19 19 19 17 15 14 14 13 13 14 15 17 18 20 21 22 22 22 21 22 21 22 23 25 26 28 29 30 30 29 27 24 21 20 21 22 23 24 25 26 28 29 31 33 35 37 38 38 39 39 39 38
47 45 41 36 32 30 29 28 27 27 28 29 30 30 29 27 25 24 23 22 22 23 24 24 24 24 23 20 19 19 19 19 19 19 19 18 17 16 15 14 13 12 12 13 15 16 18 18 19 20 21 22 23 22 21 22 23 25 27 28 30 30 29 28 26 23 21 21 22 23 24 25 24 24 25 26 28 31 33 35 37 38 39 39 38
46 42 36 30 28 28 27 27 26 26 27 28 29 28 27 25 24 23 23 22 22 23 23 23 23 23 22 21 19 18 18 18 19 19 19 18 17 16 16 14 13 12 12 13 13 14 15 16 17 19 21 22 23 22 22 21 22 24 26 27 29 30 30 29 27 25 23 23 22 23 24 25 25 25 25 26 27 28 30 31 33 35 38 39 38
45 40 34 29 27 28 28 27 25 25 26 28 28 27 26 24 24 23 22 22 22 22 23 23 23 22 22 20 19 18 18 17 18 18 18 18 18 17 16 15 13 11 12 12 12 12 13 14 16 18 19 21 21 22 22 22 22 24 26 27 28 30 30 29 28 26 25 24 23 23 24 24 25 25 25 25 26 28 28 29 30 32 34 35 36
44 38 32 29 29 29 28 26 24 24 25 27 27 27 26 24 23 23 22 21 21 21 22 22 22 22 21 20 19 19 18 17 18 18 17 18 18 17 16 15 13 12 12 11 11 11 12 13 15 16 18 19 20 21 21 22 22 24 25 27 28 29 29 29 28 27 26 25 24 24 24 24 24 24 24 24 26 27 28 28 30 30 31 31 32
42 36 30 29 29 29 28 25 23 23 24 26 27 28 27 25 24 23 22 21 21 21 21 22 22 22 21 20 19 18 18 17 17 17 17 17 18 18 17 15 13 12 12 11 10 10 11 12 13 15 16 17 19 20 21 21 22 23 24 26 27 28 28 29 28 28 27 26 25 24 24 24 24 23 23 23 24 25 26 27 28 29 30 30 30
40 35 30 30 30 30 28 25 23 23 23 24 25 26 26 25 24 23 22 21 20 20 21 21 21 21 21 20 19 18 17 17 17 17 17 17 18 18 18 16 14 14 13 12 11 10 10 11 12 13 14 16 17 19 20 21 21 22 23 25 26 27 28 28 29 28 27 26 25 25 25 24 24 23 22 21 21 21 22 24 25 27 28 29 29
38 35 33 32 32 31 29 25 23 23 23 22 21 22 23 23 23 23 22 20 20 20 20 20 20 21 21 20 18 17 17 18 18 17 17 17 18 18 18 16 15 15 14 12 11 10 10 11 11 11 12 14 16 17 19 20 21 22 23 24 25 26 27 28 29 28 28 27 26 26 25 24 24 23 22 21 20 19 19 20 21 23 25 27 28
37 36 35 34 33 32 29 25 23 23 23 22 21 21 22 23 23 22 22 20 20 20 20 20 20 20 20 20 19 18 18 18 18 18 17 17 17 18 18 17 16 16 15 13 12 11 11 11 10 11 11 13 14 16 18 20 21 22 22 23 24 25 27 28 29 29 29 28 27 27 26 25 25 24 24 23 22 20 19 18 19 20 21 23 25
36 37 36 35 33 32 30 26 23 23 23 22 23 24 25 25 24 23 22 21 21 20 20 20 20 20 20 20 19 19 18 18 18 18 17 17 17 17 18 18 17 16 16 15 14 13 12 11 11 11 11 12 13 14 16 18 20 22 22 23 23 24 26 27 28 29 30 29 29 28 27 26 26 26 25 25 24 23 22 21 20 19 19 20 22
37 36 37 36 34 32 30 27 24 23 24 23 23 24 26 27 26 24 23 22 21 21 20 19 19 20 20 20 19 19 19 19 18 18 18 17 17 17 18 18 18 17 17 16 15 14 13 12 12 11 12 12 13 13 14 16 18 21 22 23 23 24 25 26 28 29 30 30 30 30 29 28 27 27 27 26 26 25 24 24 23 21 20 19 20
40 37 36 36 35 33 31 28 25 24 24 24 24 25 26 27 27 25 24 22 21 21 20 19 19 19 20 19 19 19 19 19 19 19 18 18 17 17 17 18 18 18 17 17 16 16 15 14 13 13 12 13 13 13 14 15 17 19 21 23 24 25 25 26 27 29 30 31 32 31 31 30 29 29 28 28 27 26 25 25 25 25 23 22 21
43 39 36 36 35 34 31 29 26 24 23 23 23 24 25 25 26 25 24 22 21 21 20 20 20 20 20 20 19 19 19 20 19 19 19 19 18 18 18 17 17 18 18 18 17 17 16 16 15 14 13 13 13 13 14 14 16 17 19 22 23 25 25 26 27 28 30 32 33 33 33 33 32 31 30 29 28 27 25 25 26 26 25 24 23
44 41 38 36 35 34 32 30 28 25 23 22 22 22 23 23 24 24 24 23 22 21 21 21 21 20 20 20 20 20 20 20 20 20 20 20 19 19 18 18 18 18 18 18 18 18 18 17 16 15 15 14 14 14 14 14 15 16 17 19 22 24 25 26 26 27 29 31 33 34 34 34 34 33 32 31 29 28 26 25 25 26 26 25 25
43 41 40 37 36 34 32 31 29 27 24 23 23 23 23 24 24 24 23 23 22 22 22 22 21 21 21 21 20 20 20 20 20 20 20 20 20 20 19 18 18 18 18 18 18 18 18 18 18 17 16 15 15 15 15 15 15 15 16 17 19 21 23 25 26 26 27 28 31 33 35 35 35 35 34 33 31 30 28 27 27 27 27 26 26
42 41 39 38 36 34 33 31 30 29 27 25 24 24 24 24 24 24 23 23 23 23 22 22 22 22 22 21 21 21 21 21 21 21 21 21 21 20 20 19 19 19 18 18 18 19 19 19 19 18 18 17 17 16 16 16 16 16 16 16 17 19 21 23 24 25 25 26 27 29 32 34 35 36 35 35 34 33 31 30 30 29 29 28 28
43 41 39 37 36 35 33 31 31 30 29 27 25 25 25 25 24 23 23 24 24 23 23 23 23 23 22 22 22 22 22 21 21 21 21 21 21 21 21 20 20 19 19 19 19 19 19 19 19 19 19 19 18 18 17 17 17 17 17 17 17 18 19 20 22 24 25 25 25 26 28 30 32 33 34 35 35 35 34 34 33 33 32 32 31
42 40 39 37 36 34 33 31 30 30 30 29 27 26 26 26 25 25 24 24 24 24 23 23 23 23 23 23 23 23 22 22 22 22 22 22 22 22 21 21 20 20 19 19 19 19 19 19 20 20 20 20 19 19 19 19 19 18 18 18 18 18 18 19 20 22 23 24 25 26 26 27 29 30 31 33 34 35 35 36 36 36 35 35 34
42 40 38 37 35 34 33 32 30 29 29 29 28 27 26 26 26 26 26 26 25 25 25 25 25 25 25 24 24 23 23 22 22 22 22 22 23 22 22 22 21 21 20 20 20 20 20 20 20 20 21 21 20 20 20 20 20 20 20 19 19 19 19 19 20 20 22 23 25 26 27 28 28 29 30 31 32 33 34 35 36 37 37 37 37
42 40 38 37 35 34 33 32 31 30 29 28 28 28 27 27 26 26 27 27 27 26 26 26 26 26 26 25 24 24 24 23 23 23 23 23 23 23 23 22 22 22 21 21 21 20 20 20 20 21 21 21 21 21 21 21 21 21 21 21 21 20 20 20 20 20 21 22 23 25 26 27 28 29 30 31 31 32 33 34 34 35 36 37 37
41 40 39 37 35 33 32 31 30 30 29 29 28 27 27 27 27 27 27 28 28 28 28 27 27 27 26 26 25 25 25 24 24 24 24 23 23 23 23 23 23 22 22 22 21 21 21 21 21 21 21 21 21 22 22 22 22 22 22 22 22 22 22 21 21 21 21 22 22 23 24 26 27 28 30 31 32 32 33 33 34 34 35 35 36
41 40 39 37 36 34 32 31 30 29 28 28 28 27 26 26 27 28 28 28 28 29 29 29 28 28 27 27 26 26 25 25 25 25 25 24 24 23 23 23 23 23 23 22 22 22 22 21 21 21 22 21 21 21 22 22 22 22 22 22 22 23 23 23 23 23 23 23 23 23 24 25 25 26 28 29 31 32 32 33 34 34 35 35 35
40 39 38 37 36 34 33 32 30 29 28 27 27 26 26 25 26 27 28 28 29 29 29 29 29 29 28 28 27 27 26 26 26 25 25 25 24 24 24 24 24 24 24 23 23 23 22 22 22 22 22 22 22 22 22 22 22 22 22 22 22 22 23 23 23 24 24 24 24 24 25 25 25 26 26 27 28 29 30 32 33 34 34 35 35
40 38 37 36 36 35 33 32 31 30 29 28 27 26 25 25 24 25 26 27 28 28 29 29 29 29 29 29 28 28 27 27 26 26 26 25 25 25 25 25 25 25 25 24 24 24 23 23 23 23 23 23 23 23 23 23 23 22 22 22 22 22 22 23 23 24 24 24 25 25 25 26 26 26 26 27 27 28 28 29 31 32 33 34 35
40 38 36 36 35 34 33 33 32 32 31 30 29 28 27 26 25 25 25 26 27 27 28 29 29 30 30 29 29 28 28 27 27 27 26 26 26 26 26 26 26 26 26 26 25 25 25 25 25 25 25 24 24 24 24 24 24 24 23 23 23 23 23 23 23 23 24 24 24 25 25 26 26 27 27 27 28 28 28 29 29 30 31 32 33
41 38 36 35 35 34 33 33 32 32 32 32 31 30 30 29 28 27 26 26 27 28 28 29 29 29 29 29 29 28 28 28 27 27 27 27 27 27 27 27 27 27 27 27 27 27 27 27 27 26 26 26 26 26 26 26 26 26 26 26 25 25 25 25 25 25 25 25 25 25 25 26 26 27 27 28 28 29 29 29 29 30 30 31 32
Wind_Direction
319 320 320 321 321 320 320 319 318 317 316 314 309 303 299 300 301 302 301 300 302 304 302 298 294 289 287 288 289 288 287 288 290 293 296 298 298 296 293 289 285 282 279 276 273 272 272 272 272 270 270 270 267 262 257 253 250 248 246 244 243 241 239 237 234 232 232 232 233 234 235 235 234 233 233 233 233 232 232 229 226 223 222 222 220
318 319 319 320 320 319 319 319 318 317 316 315 310 302 297 297 298 299 299 299 301 303 302 299 295 290 286 287 289 288 286 286 288 291 295 297 297 296 293 289 285 282 278 275 272 271 271 271 271 271 272 273 272 265 259 254 251 249 247 246 244 243 241 239 236 234 232 231 231 232 234 235 235 235 234 235 234 234 234 233 231 228 227 225 224
317 318 318 318 318 319 319 318 317 316 316 315 311 303 297 296 297 297 297 298 301 303 302 300 296 290 286 286 288 288 286 285 286 289 292 295 296 296 294 290 285 282 278 273 270 269 269 269 271 272 273 275 275 269 261 255 252 250 249 248 246 244 242 240 238 235 233 230 229 230 232 233 234 235 235 236 236 235 235 235 235 233 232 230 228
316 316 316 317 317 317 318 318 317 316 315 315 312 305 297 294 295 297 296 297 300 302 301 300 297 291 286 286 287 288 287 285 285 287 290 292 295 296 294 290 286 282 278 272 268 267 267 268 269 270 272 275 276 272 264 256 253 251 250 250 248 246 244 242 239 236 235 232 229 228 229 231 232 234 235 236 237 237 236 236 236 236 235 234 232
314 314 315 315 315 316 317 317 316 315 314 314 312 305 297 292 293 296 297 297 299 300 300 300 298 293 287 285 286 288 287 285 284 286 288 291 293 295 294 291 287 284 278 271 266 264 264 265 267 269 271 273 276 274 267 258 254 252 251 251 250 249 247 244 241 238 235 234 231 229 228 228 230 231 233 235 236 237 237 235 235 236 236 236 235
312 312 313 313 314 314 315 316 316 314 313 313 312 305 295 290 291 293 294 295 298 299 299 299 298 294 288 284 285 287 287 285 283 285 287 290 293 295 294 291 289 286 279 270 264 261 261 263 265 267 270 272 275 276 271 262 256 254 253 253 252 251 250 247 243 239 236 234 232 230 228 228 228 229 231 233 234 236 236 235 234 234 235 236 236
310 311 311 311 312 313 314 315 315 313 311 311 311 305 294 289 291 292 290 292 297 298 297 298 298 294 289 285 284 286 287 284 283 283 285 290 293 295 293 291 290 287 279 270 263 259 258 260 262 264 268 271 273 275 275 269 260 256 255 255 254 253 253 250 245 241 237 234 232 230 228 227 227 228 228 230 232 233 235 235 234 233 234 234 235
309 309 309 309 309 311 312 314 314 313 310 309 309 304 295 289 291 291 289 292 296 296 295 296 297 294 289 285 285 287 286 283 282 282 285 290 293 294 293 293 291 288 280 270 263 257 255 256 259 261 264 268 271 274 277 275 267 260 257 256 256 255 255 252 248 242 237 233 231 229 227 226 227 227 227 228 229 231 232 233 234 233 232 233 233
307 307 307 307 307 309 311 313 314 312 308 306 306 303 296 290 289 290 290 292 294 294 293 294 295 294 290 285 284 286 285 283 281 281 285 290 292 293 294 295 294 289 280 270 262 256 253 253 255 258 260 264 269 273 278 280 274 265 260 258 257 256 255 253 249 243 237 232 229 227 226 225 226 226 227 228 228 229 230 231 231 232 232 232 232
305 305 305 305 306 307 309 311 313 310 306 303 302 300 295 291 291 293 292 291 291 292 292 292 294 294 290 285 284 284 285 283 281 282 285 289 291 293 295 297 296 291 280 270 262 256 252 251 253 255 257 260 265 271 276 281 279 270 263 259 258 257 255 252 247 242 237 232 229 226 224 224 224 226 227 227 228 228 229 230 230 230 231 231 231
303 303 303 303 304 306 308 310 311 309 305 300 298 297 293 290 292 292 291 289 290 290 290 290 293 294 291 286 283 283 284 283 282 282 284 287 290 293 296 299 298 291 280 270 263 258 252 249 250 253 254 256 261 267 273 279 281 276 266 260 258 257 254 250 245 240 235 232 229 226 224 223 224 226 227 228 228 229 229 229 230 229 229 229 229
301 301 301 302 303 305 307 308 309 308 306 301 297 294 291 289 289 290 289 288 289 289 288 289 291 293 292 285 281 282 284 283 282 282 283 286 289 293 298 301 299 291 281 271 264 260 254 249 249 251 253 255 257 263 270 275 279 279 272 262 257 255 253 249 243 237 232 229 228 226 224 224 225 226 227 228 229 230 230 230 230 230 230 229 228
299 299 300 301 302 304 305 307 307 308 307 302 296 293 290 288 288 289 288 287 288 288 287 287 289 292 291 285 280 281 283 283 283 281 282 284 288 293 299 302 300 291 281 273 266 262 255 249 248 249 252 254 256 259 265 271 276 279 275 267 258 254 251 248 243 236 230 226 225 225 224 224 226 227 228 229 230 231 232 232 232 231 231 230 229
298 298 298 300 302 303 304 305 306 307 306 302 295 291 290 288 286 287 286 285 286 286 285 285 286 290 290 284 280 280 282 283 283 280 281 283 287 294 300 302 300 291 282 275 268 264 257 249 247 248 250 252 254 256 260 266 271 275 276 272 263 255 250 247 243 238 232 226 223 223 224 224 226 228 229 230 230 231 232 233 233 233 232 232 231
296 297 298 299 301 302 303 304 305 306 305 301 294 288 289 288 285 285 284 282 283 284 283 283 284 288 289 283 279 279 281 283 282 279 280 282 287 294 299 301 298 291 284 276 270 265 259 250 247 247 248 250 251 252 255 261 266 270 273 273 268 258 251 246 243 239 235 231 226 224 224 224 225 228 229 230 231 232 233 234 235 235 234 234 233
296 296 298 299 299 301 302 303 304 304 303 300 291 285 287 288 285 284 282 279 281 282 281 281 282 286 288 283 277 278 280 282 281 278 278 281 287 294 298 299 297 291 284 278 272 268 262 253 248 246 247 248 249 250 252 256 262 266 269 271 270 263 254 247 243 240 237 234 231 228 227 226 226 228 229 230 231 232 233 234 236 236 236 236 235
296 296 297 298 299 300 302 302 303 303 301 298 289 281 284 288 287 284 282 279 279 280 279 278 280 285 287 281 276 276 279 280 279 277 277 280 286 294 297 297 295 290 285 280 276 271 265 257 251 248 248 249 249 249 250 252 257 262 266 268 269 266 260 250 244 240 237 235 233 232 230 229 228 229 231 232 233 233 234 235 237 237 238 238 237
297 297 297 298 299 300 301 302 302 301 299 296 286 277 280 286 287 286 283 280 279 279 278 276 278 283 285 280 275 275 278 279 278 275 276 279 285 292 296 296 292 289 286 283 280 274 266 259 254 251 251 251 250 250 250 250 253 257 261 265 266 265 263 256 247 242 238 235 233 233 233 232 231 231 232 233 234 235 235 236 237 238 238 238 239
298 297 297 298 299 300 300 301 301 300 297 293 283 276 277 282 286 287 284 281 279 278 277 275 276 282 284 279 273 274 276 277 276 273 274 278 284 291 294 293 291 290 289 285 280 274 267 259 255 253 253 253 252 250 249 249 250 253 257 262 263 262 262 260 253 245 239 236 233 232 232 233 233 233 234 234 235 236 236 236 237 237 237 238 238
299 299 299 299 299 299 300 299 299 298 296 289 280 274 275 279 285 288 285 280 278 276 274 273 275 281 282 277 272 273 275 275 273 272 274 277 283 289 290 290 292 294 293 287 279 272 266 259 254 253 253 253 252 250 249 248 248 250 253 257 260 260 260 259 256 249 242 237 234 232 231 232 233 234 235 236 237 238 237 237 238 238 237 237 238
302 301 300 299 299 298 298 298 298 297 294 286 277 273 273 275 281 285 283 278 275 274 271 270 273 279 280 276 271 271 273 274 272 271 274 277 281 286 286 288 293 298 296 289 279 271 265 259 253 252 254 254 253 251 249 248 247 247 248 252 257 260 259 256 255 253 246 240 235 232 231 231 231 232 234 235 237 238 238 239 239 240 239 239 240
304 303 301 299 299 298 298 297 296 295 291 283 275 271 271 273 277 281 281 276 272 271 269 268 272 277 278 273 269 268 270 272 271 271 272 275 279 283 284 287 294 298 296 290 282 273 266 260 254 251 253 255 256 252 248 246 246 245 245 248 253 257 257 253 250 250 247 242 237 234 232 231 231 232 233 234 235 237 239 240 241 242 242 243 243
307 305 302 300 299 298 297 296 295 293 289 282 275 271 271 272 275 278 277 273 269 267 266 266 270 275 276 271 266 266 268 270 270 270 270 272 276 280 282 286 292 295 294 290 283 275 267 261 256 253 253 256 258 255 247 244 244 243 242 244 248 253 255 252 248 246 246 243 239 236 233 232 232 232 233 234 235 237 239 241 241 242 242 243 243
310 307 304 302 300 298 297 295 292 291 288 282 276 273 273 273 273 275 275 271 266 264 264 266 269 274 275 268 263 263 266 268 268 268 268 269 272 277 281 286 290 293 292 289 284 276 269 264 261 258 256 257 258 255 248 245 244 243 242 242 244 248 252 252 248 243 242 241 240 237 235 234 233 233 234 235 236 238 239 241 241 241 241 240 242
315 312 308 305 302 300 297 292 289 290 289 283 277 275 276 274 272 273 273 270 266 263 263 265 269 273 273 266 261 262 264 266 267 266 266 267 270 275 279 283 288 292 291 289 286 279 272 268 265 262 259 257 257 255 250 246 244 243 242 241 241 243 246 248 247 241 237 237 239 238 237 236 235 236 237 238 238 239 239 240 241 241 241 240 240
319 316 312 308 304 300 295 290 289 290 288 282 277 278 278 274 271 272 272 269 265 263 263 265 269 273 272 265 259 259 262 264 265 264 265 267 270 273 276 279 284 288 288 287 286 282 276 271 268 265 261 259 258 256 251 246 244 244 242 240 239 240 241 244 245 242 236 235 237 239 240 239 238 238 239 240 240 240 240 240 240 241 241 241 240
322 320 315 309 303 300 296 293 292 291 287 281 278 279 279 275 271 271 270 267 264 263 264 266 269 273 272 265 258 257 259 261 262 262 263 266 268 269 272 276 282 284 284 285 287 286 281 275 269 264 260 258 257 257 254 248 245 244 243 241 239 238 239 239 241 241 239 237 237 239 242 243 242 240 239 239 239 240 240 240 240 240 241 241 241
327 323 318 311 305 304 303 300 296 292 287 282 279 281 281 277 271 269 268 265 264 264 265 267 270 273 271 264 257 255 256 257 259 260 262 263 264 265 269 273 278 282 282 284 288 288 284 275 266 259 256 256 257 257 256 251 246 242 242 242 239 237 237 237 237 238 238 239 240 241 243 245 244 242 241 240 240 240 240 240 240 240 241 241 241
328 325 320 315 313 311 309 305 299 293 288 283 281 284 284 279 272 268 266 264 264 265 265 267 270 273 269 262 256 254 254 255 257 259 260 261 261 262 264 268 272 275 276 280 286 287 282 275 267 261 258 257 258 257 256 252 246 242 240 241 240 238 236 235 235 235 236 238 241 243 245 246 247 245 243 242 243 243 243 242 241 241 241 241 241
329 325 321 319 317 314 311 307 301 295 290 285 282 284 286 281 274 269 266 264 263 264 265 267 271 273 268 260 255 253 253 255 257 258 258 258 259 260 261 263 266 267 268 275 281 282 280 276 270 265 262 260 258 257 254 250 245 241 239 239 239 238 236 234 233 233 234 236 238 241 244 246 248 248 247 246 246 246 246 245 244 243 241 241 242
332 327 321 319 318 316 312 307 302 299 295 288 283 284 285 282 276 270 266 263 263 264 266 268 271 273 268 259 253 251 251 253 256 257 256 255 256 257 259 261 262 261 265 272 277 276 276 275 271 267 263 260 258 255 252 248 244 240 238 238 239 238 236 234 232 232 233 235 237 240 242 244 246 248 248 248 249 249 250 249 248 246 243 241 241
337 332 325 321 320 318 314 308 301 300 300 295 288 286 286 283 277 271 265 263 262 263 265 268 272 273 268 260 253 250 251 253 255 255 255 253 253 254 256 257 257 257 261 268 271 272 273 273 273 270 265 261 257 253 250 246 243 240 238 238 239 238 236 234 232 232 234 235 237 240 242 243 245 245 246 248 249 250 251 251 250 248 244 241 240
338 336 330 325 322 320 316 310 301 299 302 300 295 292 292 290 282 273 266 262 262 262 264 268 272 273 268 262 255 251 251 253 254 255 254 253 252 252 253 253 252 253 257 260 263 265 267 269 271 270 267 263 258 254 249 246 243 240 238 237 238 238 238 235 234 234 235 237 238 240 242 244 245 245 245 246 248 250 252 252 251 249 245 241 239
336 335 332 327 324 322 319 310 299 295 299 301 299 299 301 299 290 278 268 263 261 262 264 268 272 273 269 263 257 254 252 252 254 255 254 253 252 253 253 251 250 251 254 255 257 258 260 263 267 267 265 262 258 253 249 246 243 241 239 238 237 238 238 237 236 235 236 238 239 241 242 244 246 247 247 247 248 249 251 253 254 252 248 243 239
333 333 332 330 327 325 322 313 298 291 294 298 298 298 300 300 296 286 274 265 262 262 264 269 273 274 271 265 260 256 254 252 253 254 255 254 252 252 251 249 248 249 251 252 253 254 255 257 260 261 262 261 258 254 250 246 243 242 241 240 239 238 238 238 237 237 238 239 240 241 243 244 247 248 250 250 250 250 249 251 253 253 251 246 241
332 329 330 332 330 327 324 318 305 293 290 292 294 296 298 298 296 289 279 270 265 264 266 270 274 276 273 267 262 258 256 254 252 253 254 254 253 251 250 248 247 246 247 248 249 250 250 251 252 254 256 257 256 255 253 249 245 242 241 241 241 241 240 239 238 238 239 240 240 241 242 244 246 248 250 250 251 251 249 249 250 251 250 248 244
333 326 324 327 330 329 325 321 312 301 293 291 292 295 296 294 292 288 281 272 267 265 266 269 273 275 273 268 263 260 258 256 253 253 253 254 254 252 250 249 247 246 245 245 246 246 246 246 246 247 248 250 252 252 253 252 249 246 243 242 242 242 242 241 241 240 240 240 240 241 241 242 244 246 248 249 249 249 248 247 247 248 248 247 246
334 329 322 320 324 327 326 322 316 306 299 295 293 293 294 293 290 285 279 272 266 263 264 267 271 273 272 268 264 261 259 257 256 255 254 254 255 254 252 250 248 247 246 245 244 244 244 243 243 242 242 244 245 246 248 250 251 249 247 245 244 243 243 243 243 242 242 241 241 241 241 241 242 243 245 247 248 247 246 245 245 246 246 246 246
332 331 326 320 318 319 322 322 318 309 300 295 294 294 296 297 293 284 275 267 263 262 263 267 270 273 273 270 266 262 260 258 257 256 255 255 255 255 254 252 250 248 247 246 244 244 243 243 242 241 240 240 241 242 243 245 247 249 249 248 247 246 245 244 245 244 244 243 242 241 241 241 241 242 243 245 246 245 244 244 244 244 245 245 245
327 329 328 324 319 315 314 315 316 311 302 294 292 293 295 297 295 288 277 268 264 262 263 265 268 272 273 273 270 266 262 260 258 257 256 255 255 255 255 254 252 250 249 247 246 245 244 244 243 242 241 240 239 240 241 242 243 246 247 249 249 248 247 247 246 246 246 244 243 242 241 241 241 242 243 244 244 244 243 243 244 245 245 245 244
322 323 324 325 323 318 312 308 308 309 305 298 292 290 291 292 291 287 279 270 265 262 261 263 266 270 273 275 274 270 265 262 259 257 256 255 254 254 254 254 253 252 251 249 248 246 245 245 244 244 243 241 239 239 239 240 241 243 244 246 249 250 250 249 248 247 247 246 245 243 242 242 242 242 243 244 245 245 245 244 245 245 246 246 245
319 319 319 320 321 321 317 311 304 302 302 300 295 291 288 286 285 282 276 269 263 260 260 261 264 267 271 273 273 270 266 263 261 258 257 255 254 254 254 254 253 253 252 251 250 248 247 246 245 244 244 243 241 240 240 240 241 241 242 243 245 247 249 250 250 248 247 246 246 245 245 244 243 243 244 245 245 246 246 246 246 246 246 246 246
316 316 315 314 315 316 318 315 309 302 297 295 294 291 287 284 281 278 273 268 263 260 258 259 261 263 266 269 269 269 267 265 262 260 258 255 254 254 254 254 253 252 251 250 250 249 249 248 246 245 244 244 243 242 241 240 240 241 241 242 242 244 245 247 249 249 249 248 247 246 246 246 246 246 246 246 247 247 248 248 248 248 247 247 247
313 313 312 312 310 310 311 313 312 307 300 294 291 289 287 283 280 276 272 268 264 262 260 259 259 260 261 263 265 266 266 265 263 261 258 256 254 253 253 254 253 252 251 250 249 249 249 248 248 247 246 245 244 243 242 241 240 240 240 241 241 242 243 244 246 248 249 249 248 247 246 246 247 247 248 248 248 248 248 248 248 248 248 248 247
311 310 310 310 308 306 305 305 307 308 305 299 293 289 286 283 280 276 272 268 265 262 260 258 257 257 258 260 262 263 264 264 263 261 258 256 255 254 253 253 253 252 251 249 248 248 248 247 247 247 246 246 245 244 243 243 242 241 241 241 241 242 243 243 244 245 247 248 248 248 247 247 247 247 248 249 249 249 249 249 248 248 248 248 248
310 308 308 307 306 304 301 300 299 301 302 302 299 295 290 285 281 276 272 268 265 262 259 257 255 255 256 257 258 260 261 262 262 260 258 257 255 254 253 253 253 253 252 250 248 247 247 247 247 247 247 247 246 245 245 244 244 243 243 243 243 243 244 244 244 245 245 246 248 249 249 249 248 248 248 248 249 250 250 250 250 250 249 249 248
310 307 305 304 303 302 299 296 293 293 294 296 298 297 295 290 284 279 274 270 267 263 260 258 256 255 254 254 255 256 257 258 259 259 258 257 256 255 254 254 254 253 253 251 250 249 248 247 247 248 248 248 248 248 247 246 245 245 245 244 244 244 245 245 246 246 246 246 247 248 249 250 250 250 249 249 249 249 250 250 251 251 251 251 250
311 307 304 301 299 298 296 293 289 286 285 286 289 292 293 291 287 282 277 272 268 265 261 259 257 255 254 253 253 253 254 255 256 256 256 256 255 254 254 253 253 253 252 252 251 250 249 248 247 247 247 248 248 249 248 248 247 247 246 246 245 245 246 246 247 247 247 248 248 248 249 250 251 252 252 252 252 251 251 250 250 251 251 251 251
313 308 304 300 297 294 292 290 286 283 280 278 278 279 281 283 282 280 275 271 268 265 262 259 256 255 253 253 252 252 253 253 254 254 254 254 253 253 252 252 251 251 251 251 251 250 249 249 248 247 247 247 247 247 248 248 249 248 247 247 247 247 247 247 248 248 248 248 249 249 250 251 251 253 253 254 255 255 254 253 252 252 251 251 251
314 309 304 299 296 292 289 286 283 279 276 273 270 269 269 270 272 272 271 268 264 262 260 258 256 255 254 253 253 253 253 253 253 253 253 252 252 252 251 250 250 249 249 249 249 249 249 249 248 247 247 246 246 247 247 248 249 249 249 249 249 249 249 249 249 250 250 250 250 250 250 251 252 253 254 254 255 255 256 256 255 254 253 252 252
316 311 305 299 294 291 287 283 279 276 273 270 267 264 262 262 262 263 264 263 261 259 257 256 255 254 254 254 253 253 253 253 253 253 252 252 251 251 250 250 249 248 248 247 247 247 247 248 247 247 247 247 247 248 248 249 249 250 250 250 251 251 251 251 251 251 252 252 252 252 252 252 252 253 254 254 255 256 256 257 257 257 256 255 253
Height
5472 5466 5460 5455 5450 5443 5438 5433 5427 5422 5417 5412 5407 5404 5400 5397 5395 5392 5389 5386 5383 5380 5378 5375 5373 5371 5370 5369 5368 5366 5365 5364 5362 5360 5359 5357 5356 5354 5352 5351 5350 5350 5349 5350 5350 5350 5350 5349 5348 5348 5347 5347 5345 5344 5344 5345 5346 5348 5351 5354 5357 5360 5364 5369 5376 5382 5387 5393 5399 5404 5410 5417 5425 5433 5441 5450 5459 5466 5473 5481 5488 5495 5501 5507 5513
5464 5458 5452 5447 5442 5436 5430 5425 5419 5414 5409 5404 5399 5396 5392 5390 5387 5385 5382 5379 5376 5374 5371 5368 5366 5364 5363 5362 5361 5360 5359 5357 5356 5354 5353 5351 5350 5348 5347 5345 5344 5344 5343 5343 5343 5344 5344 5343 5342 5342 5342 5341 5339 5338 5338 5338 5339 5341 5343 5345 5348 5351 5354 5358 5364 5371 5376 5381 5386 5391 5397 5404 5412 5419 5426 5436 5446 5454 5461 5468 5475 5482 5489 5495 5501
5455 5450 5444 5439 5433 5428 5423 5417 5412 5407 5401 5396 5391 5387 5384 5382 5380 5377 5375 5372 5370 5367 5364 5362 5359 5358 5356 5355 5354 5353 5352 5351 5350 5349 5347 5345 5343 5342 5341 5339 5338 5337 5337 5337 5337 5337 5338 5337 5337 5336 5336 5335 5334 5333 5332 5332 5333 5334 5335 5337 5339 5342 5345 5348 5354 5359 5364 5369 5374 5379 5384 5392 5399 5406 5413 5422 5432 5441 5449 5455 5462 5469 5476 5482 5489
5446 5441 5436 5431 5425 5420 5415 5409 5404 5399 5394 5389 5384 5379 5377 5375 5372 5370 5368 5365 5363 5360 5358 5355 5353 5351 5350 5349 5348 5347 5346 5345 5344 5343 5341 5339 5338 5336 5335 5334 5332 5331 5331 5331 5331 5331 5331 5331 5331 5331 5331 5330 5329 5328 5327 5327 5327 5328 5329 5330 5331 5333 5335 5338 5343 5348 5352 5358 5364 5369 5373 5379 5387 5395 5402 5410 5418 5426 5435 5442 5449 5456 5462 5469 5476
5438 5432 5427 5422 5417 5412 5406 5402 5396 5391 5386 5381 5376 5372 5369 5367 5365 5363 5361 5359 5356 5354 5351 5349 5346 5345 5343 5342 5342 5340 5339 5339 5338 5337 5335 5334 5332 5330 5329 5328 5326 5325 5325 5325 5325 5325 5325 5325 5325 5326 5325 5325 5324 5322 5322 5321 5321 5322 5323 5323 5324 5325 5327 5329 5333 5337 5342 5347 5353 5359 5364 5369 5376 5384 5391 5397 5403 5410 5418 5428 5436 5442 5448 5455 5463
5429 5423 5418 5413 5408 5403 5398 5394 5388 5383 5379 5374 5369 5365 5362 5360 5358 5356 5354 5352 5350 5347 5345 5342 5340 5338 5337 5336 5335 5334 5333 5332 5332 5330 5329 5328 5326 5325 5323 5322 5320 5319 5319 5318 5318 5319 5319 5319 5319 5320 5320 5319 5318 5317 5316 5316 5316 5316 5316 5317 5317 5318 5320 5321 5324 5327 5332 5338 5343 5349 5356 5360 5366 5372 5377 5383 5388 5393 5401 5411 5420 5428 5435 5441 5448
5419 5414 5409 5404 5399 5395 5390 5386 5381 5376 5371 5366 5362 5358 5355 5353 5351 5348 5347 5345 5343 5341 5338 5336 5334 5332 5330 5329 5329 5328 5327 5326 5325 5324 5323 5322 5320 5319 5317 5316 5314 5313 5313 5312 5312 5312 5313 5313 5313 5314 5314 5314 5313 5312 5311 5310 5310 5310 5310 5311 5311 5312 5312 5313 5315 5318 5323 5328 5333 5339 5346 5351 5355 5360 5365 5369 5375 5380 5387 5396 5405 5414 5420 5426 5433
5409 5404 5399 5395 5391 5386 5382 5378 5373 5368 5363 5358 5355 5351 5348 5346 5344 5342 5340 5338 5336 5334 5332 5330 5327 5325 5324 5323 5322 5322 5321 5320 5319 5318 5317 5316 5314 5313 5311 5310 5308 5307 5307 5306 5306 5306 5306 5307 5307 5309 5309 5309 5308 5307 5306 5305 5305 5304 5305 5305 5305 5305 5305 5305 5306 5309 5313 5318 5324 5329 5336 5341 5345 5349 5353 5357 5363 5370 5375 5380 5387 5395 5403 5411 5419
5398 5394 5390 5386 5382 5378 5374 5369 5364 5360 5355 5351 5347 5344 5341 5339 5337 5335 5333 5331 5329 5327 5325 5323 5321 5319 5318 5317 5316 5316 5315 5314 5313 5312 5311 5310 5309 5307 5305 5304 5302 5301 5301 5300 5299 5299 5300 5301 5302 5303 5304 5304 5303 5302 5301 5301 5300 5299 5299 5300 5300 5299 5299 5299 5299 5301 5304 5309 5314 5319 5325 5331 5334 5337 5341 5345 5351 5357 5361 5365 5373 5381 5389 5398 5406
5388 5384 5380 5376 5373 5369 5365 5361 5356 5351 5347 5343 5340 5337 5334 5333 5331 5328 5326 5324 5322 5320 5319 5317 5315 5313 5311 5311 5310 5309 5309 5308 5307 5306 5306 5305 5303 5301 5300 5298 5297 5296 5295 5294 5293 5293 5294 5295 5296 5297 5298 5298 5298 5297 5297 5296 5295 5294 5294 5295 5295 5294 5294 5293 5293 5294 5297 5301 5305 5310 5315 5321 5324 5327 5331 5335 5340 5345 5350 5357 5364 5371 5377 5384 5394
5377 5373 5370 5367 5363 5360 5356 5352 5347 5343 5339 5335 5332 5329 5327 5326 5324 5321 5319 5317 5315 5314 5312 5310 5309 5307 5305 5304 5304 5303 5302 5301 5301 5301 5300 5299 5297 5295 5294 5292 5291 5290 5288 5287 5286 5286 5288 5289 5290 5291 5292 5293 5293 5293 5293 5292 5291 5290 5289 5290 5290 5290 5290 5289 5289 5290 5291 5294 5298 5302 5307 5313 5316 5318 5322 5327 5331 5336 5342 5348 5354 5361 5366 5374 5384
5367 5363 5359 5356 5353 5350 5346 5342 5338 5334 5330 5326 5324 5321 5320 5318 5316 5314 5312 5310 5309 5307 5306 5304 5303 5301 5299 5298 5297 5297 5296 5295 5295 5295 5294 5293 5292 5290 5288 5287 5285 5284 5282 5281 5280 5280 5282 5283 5284 5285 5286 5287 5288 5288 5288 5288 5287 5286 5285 5285 5285 5285 5285 5285 5285 5286 5287 5290 5293 5296 5301 5305 5308 5311 5315 5319 5323 5327 5333 5338 5344 5350 5357 5365 5375
5355 5352 5348 5345 5343 5340 5336 5333 5329 5325 5321 5318 5315 5313 5312 5310 5309 5307 5305 5303 5302 5300 5299 5298 5297 5295 5294 5292 5291 5291 5290 5289 5289 5289 5289 5288 5286 5285 5283 5281 5280 5278 5277 5275 5274 5274 5276 5277 5278 5279 5280 5282 5283 5284 5284 5284 5283 5282 5281 5281 5281 5281 5281 5282 5282 5283 5284 5286 5288 5292 5295 5298 5302 5305 5308 5311 5315 5320 5325 5329 5335 5340 5347 5355 5362
5343 5340 5337 5334 5332 5329 5326 5323 5319 5316 5312 5309 5307 5305 5304 5302 5301 5299 5298 5296 5295 5294 5293 5292 5291 5289 5288 5286 5286 5285 5284 5284 5284 5284 5283 5282 5280 5279 5278 5276 5275 5273 5271 5269 5268 5268 5270 5272 5272 5273 5275 5276 5278 5279 5280 5280 5279 5278 5277 5277 5277 5277 5278 5278 5279 5280 5281 5283 5285 5287 5289 5292 5296 5298 5300 5304 5309 5314 5318 5322 5325 5330 5337 5343 5349
5331 5328 5325 5323 5321 5318 5316 5313 5310 5306 5303 5300 5298 5297 5296 5294 5293 5292 5291 5289 5288 5287 5286 5285 5284 5283 5282 5281 5280 5279 5278 5278 5278 5278 5277 5276 5275 5274 5273 5271 5270 5268 5266 5264 5263 5263 5264 5266 5267 5268 5270 5271 5273 5274 5275 5275 5275 5274 5274 5273 5273 5273 5274 5275 5276 5277 5278 5280 5282 5283 5284 5288 5291 5292 5295 5300 5304 5308 5311 5315 5318 5322 5328 5334 5340
5318 5316 5314 5312 5310 5308 5305 5303 5300 5297 5294 5292 5290 5289 5288 5287 5285 5284 5283 5282 5281 5280 5280 5279 5278 5277 5276 5275 5274 5273 5273 5273 5273 5273 5272 5271 5270 5269 5268 5266 5265 5263 5261 5259 5258 5258 5259 5260 5262 5263 5264 5266 5267 5269 5270 5271 5271 5271 5270 5270 5270 5269 5270 5271 5272 5273 5275 5277 5278 5280 5281 5284 5286 5288 5291 5294 5298 5302 5305 5308 5313 5317 5321 5327 5332
5306 5305 5303 5301 5299 5298 5295 5293 5291 5288 5286 5284 5282 5282 5281 5279 5278 5277 5276 5275 5274 5274 5273 5273 5272 5271 5270 5269 5269 5268 5267 5268 5268 5267 5266 5266 5265 5264 5263 5261 5260 5258 5256 5254 5253 5253 5254 5255 5256 5258 5259 5261 5262 5263 5265 5266 5266 5267 5267 5267 5266 5266 5267 5268 5269 5270 5271 5273 5275 5277 5278 5280 5282 5285 5287 5289 5293 5296 5300 5304 5308 5311 5315 5320 5324
5295 5294 5293 5291 5289 5288 5286 5284 5282 5279 5277 5275 5275 5274 5273 5272 5271 5270 5269 5268 5268 5267 5267 5266 5266 5265 5264 5263 5263 5262 5262 5262 5262 5262 5261 5261 5260 5259 5258 5257 5255 5253 5251 5250 5248 5248 5249 5250 5251 5253 5254 5255 5257 5258 5260 5261 5262 5262 5263 5263 5263 5262 5263 5264 5265 5266 5267 5269 5271 5273 5275 5277 5279 5281 5283 5285 5288 5291 5295 5299 5301 5304 5309 5313 5315
5284 5283 5283 5281 5280 5278 5276 5274 5272 5270 5269 5267 5267 5266 5266 5265 5264 5263 5262 5262 5261 5261 5261 5260 5260 5259 5258 5258 5257 5257 5257 5257 5257 5256 5256 5256 5256 5255 5254 5252 5250 5249 5247 5245 5244 5244 5245 5246 5247 5248 5249 5250 5251 5253 5254 5256 5257 5258 5259 5260 5259 5259 5260 5261 5261 5262 5264 5265 5267 5269 5271 5273 5275 5277 5279 5281 5283 5286 5290 5292 5294 5297 5302 5304 5305
5275 5274 5273 5272 5270 5269 5267 5265 5264 5262 5260 5259 5259 5258 5258 5258 5257 5256 5256 5255 5255 5254 5254 5254 5254 5254 5253 5252 5252 5252 5251 5252 5252 5251 5251 5251 5251 5250 5249 5247 5246 5244 5243 5241 5241 5240 5240 5241 5242 5243 5244 5245 5246 5248 5249 5251 5253 5254 5256 5256 5255 5255 5257 5258 5258 5258 5260 5261 5263 5264 5266 5268 5270 5273 5274 5276 5278 5281 5284 5286 5288 5291 5293 5295 5297
5266 5265 5264 5263 5261 5260 5258 5257 5255 5254 5252 5252 5251 5251 5251 5251 5251 5250 5249 5249 5248 5248 5248 5248 5248 5248 5247 5247 5247 5247 5246 5246 5246 5246 5246 5246 5246 5246 5245 5243 5241 5240 5238 5237 5237 5236 5236 5237 5238 5239 5239 5240 5241 5243 5245 5247 5248 5250 5251 5252 5251 5252 5254 5254 5254 5255 5256 5257 5258 5260 5262 5264 5266 5268 5270 5272 5273 5275 5277 5280 5282 5284 5286 5289 5291
5259 5258 5256 5254 5253 5252 5250 5249 5247 5246 5245 5245 5244 5244 5244 5244 5244 5243 5243 5242 5242 5242 5243 5243 5243 5243 5242 5242 5242 5242 5241 5241 5241 5241 5241 5241 5241 5241 5240 5239 5237 5236 5235 5233 5232 5232 5232 5233 5234 5234 5235 5235 5237 5239 5241 5242 5243 5245 5247 5247 5247 5248 5250 5251 5251 5252 5252 5253 5254 5256 5257 5259 5261 5263 5265 5267 5268 5269 5272 5274 5277 5279 5281 5283 5285
5253 5251 5249 5247 5246 5245 5243 5242 5240 5239 5239 5238 5237 5237 5237 5238 5237 5237 5236 5236 5236 5237 5237 5237 5237 5237 5237 5237 5237 5237 5237 5236 5236 5237 5237 5237 5237 5237 5236 5235 5233 5232 5231 5229 5228 5228 5228 5228 5229 5230 5231 5232 5233 5235 5236 5237 5238 5240 5242 5243 5243 5244 5246 5247 5248 5248 5249 5250 5250 5252 5253 5255 5256 5258 5260 5261 5263 5265 5268 5270 5272 5275 5276 5277 5278
5248 5245 5243 5241 5239 5238 5236 5235 5234 5233 5233 5232 5231 5231 5231 5231 5231 5231 5231 5231 5231 5231 5232 5232 5232 5232 5232 5232 5232 5232 5232 5232 5232 5232 5232 5232 5232 5232 5232 5231 5230 5229 5227 5226 5225 5224 5224 5224 5224 5225 5227 5228 5229 5230 5231 5232 5233 5235 5237 5238 5240 5241 5242 5243 5244 5245 5246 5247 5247 5248 5249 5250 5252 5253 5254 5256 5259 5261 5264 5265 5267 5269 5271 5272 5273
5243 5240 5237 5235 5233 5231 5230 5229 5228 5227 5227 5226 5226 5226 5226 5226 5225 5225 5225 5225 5225 5226 5226 5227 5227 5227 5227 5227 5228 5228 5227 5227 5227 5227 5227 5227 5228 5228 5228 5227 5226 5225 5224 5222 5221 5220 5219 5220 5220 5221 5223 5224 5225 5226 5227 5228 5229 5230 5232 5234 5235 5237 5238 5239 5241 5242 5243 5243 5244 5244 5245 5246 5247 5249 5250 5253 5255 5257 5259 5260 5262 5264 5265 5267 5268
5238 5235 5231 5228 5227 5225 5224 5223 5223 5222 5222 5221 5221 5221 5221 5220 5220 5220 5220 5220 5220 5221 5221 5222 5222 5222 5222 5223 5223 5223 5223 5223 5223 5223 5223 5223 5223 5224 5223 5223 5222 5221 5220 5219 5217 5216 5216 5216 5216 5218 5219 5220 5221 5222 5223 5224 5225 5226 5228 5229 5231 5232 5234 5235 5237 5238 5239 5240 5241 5241 5241 5242 5244 5245 5247 5249 5250 5252 5253 5255 5257 5258 5260 5261 5263
5233 5229 5225 5223 5221 5220 5219 5219 5218 5218 5217 5217 5216 5216 5216 5215 5215 5215 5215 5215 5215 5216 5217 5217 5218 5218 5218 5218 5218 5219 5219 5219 5219 5219 5218 5218 5219 5219 5219 5219 5218 5218 5217 5215 5214 5213 5213 5213 5213 5214 5215 5216 5217 5218 5218 5220 5221 5222 5223 5225 5226 5228 5229 5231 5233 5234 5235 5236 5237 5238 5238 5239 5240 5242 5243 5244 5245 5247 5248 5250 5251 5253 5254 5256 5257
5228 5225 5221 5219 5217 5216 5215 5215 5214 5213 5213 5212 5212 5212 5211 5210 5210 5210 5210 5210 5211 5211 5212 5213 5213 5213 5213 5213 5214 5215 5215 5215 5215 5214 5214 5215 5215 5215 5215 5215 5215 5214 5213 5212 5211 5210 5210 5209 5210 5210 5211 5212 5213 5213 5214 5215 5217 5218 5219 5220 5222 5223 5225 5227 5228 5230 5231 5232 5233 5234 5235 5235 5237 5238 5239 5240 5241 5242 5243 5244 5246 5247 5248 5250 5252
5226 5222 5219 5216 5215 5214 5212 5211 5210 5209 5209 5208 5208 5207 5207 5206 5206 5205 5205 5206 5206 5207 5208 5208 5209 5209 5209 5209 5209 5210 5211 5211 5211 5210 5210 5211 5211 5211 5211 5211 5211 5210 5209 5208 5208 5207 5207 5206 5206 5206 5207 5208 5209 5210 5211 5211 5212 5214 5215 5216 5217 5219 5220 5222 5224 5225 5227 5228 5229 5230 5231 5232 5233 5234 5235 5236 5237 5237 5238 5240 5241 5242 5243 5245 5247
5223 5219 5217 5215 5213 5211 5210 5208 5207 5206 5205 5204 5203 5203 5202 5202 5201 5201 5201 5201 5202 5202 5203 5204 5204 5205 5205 5205 5205 5206 5206 5207 5207 5207 5207 5207 5207 5207 5208 5208 5207 5207 5206 5205 5205 5204 5203 5203 5203 5203 5203 5204 5205 5206 5207 5207 5208 5210 5211 5212 5213 5214 5216 5218 5219 5221 5222 5224 5225 5226 5227 5228 5229 5229 5230 5232 5232 5233 5234 5235 5236 5237 5239 5240 5241
5221 5217 5215 5213 5211 5209 5207 5205 5204 5203 5202 5201 5200 5199 5198 5198 5197 5197 5197 5197 5197 5198 5199 5200 5200 5200 5200 5201 5201 5202 5202 5203 5203 5203 5203 5203 5203 5203 5204 5204 5204 5203 5202 5202 5201 5201 5200 5200 5200 5199 5200 5200 5201 5202 5203 5203 5204 5206 5207 5208 5209 5210 5212 5213 5215 5217 5218 5220 5221 5222 5223 5224 5225 5225 5226 5227 5228 5228 5229 5230 5231 5232 5234 5235 5236
5219 5216 5213 5211 5209 5207 5204 5203 5201 5200 5199 5198 5196 5196 5195 5194 5194 5193 5193 5193 5193 5194 5195 5195 5196 5196 5196 5196 5197 5197 5198 5198 5199 5199 5199 5199 5199 5200 5200 5200 5200 5200 5199 5198 5198 5197 5197 5197 5196 5196 5196 5196 5197 5198 5198 5199 5200 5202 5203 5204 5205 5206 5208 5209 5211 5212 5214 5215 5217 5218 5219 5220 5221 5222 5222 5223 5224 5224 5225 5226 5226 5227 5229 5230 5231
5219 5215 5213 5210 5207 5204 5202 5200 5198 5197 5196 5194 5193 5193 5192 5191 5190 5190 5189 5189 5189 5190 5191 5191 5191 5192 5192 5192 5192 5193 5194 5194 5195 5195 5195 5195 5196 5196 5196 5197 5197 5196 5196 5195 5195 5194 5194 5194 5193 5193 5193 5193 5193 5194 5195 5195 5196 5198 5199 5200 5201 5203 5204 5205 5207 5208 5210 5211 5212 5214 5215 5216 5217 5218 5218 5219 5220 5221 5221 5222 5222 5223 5224 5225 5227
5217 5214 5211 5208 5205 5202 5199 5197 5195 5194 5193 5191 5190 5190 5189 5188 5187 5186 5186 5186 5186 5186 5187 5187 5187 5187 5187 5188 5188 5188 5189 5190 5190 5191 5191 5191 5192 5192 5192 5193 5193 5192 5192 5192 5191 5191 5191 5190 5190 5190 5190 5190 5190 5190 5191 5192 5193 5194 5195 5196 5197 5198 5200 5201 5203 5204 5206 5207 5208 5209 5211 5212 5212 5213 5214 5215 5216 5217 5217 5218 5218 5219 5220 5221 5222
5216 5212 5209 5205 5202 5199 5196 5194 5192 5191 5190 5189 5187 5186 5186 5185 5184 5183 5183 5182 5182 5182 5183 5183 5183 5183 5183 5184 5184 5184 5185 5185 5186 5186 5187 5187 5188 5188 5188 5189 5189 5189 5189 5188 5188 5188 5187 5187 5187 5187 5187 5187 5187 5187 5188 5188 5189 5190 5191 5192 5193 5194 5195 5197 5198 5200 5201 5203 5204 5205 5206 5207 5208 5209 5210 5211 5212 5213 5214 5214 5215 5216 5216 5217 5218
5214 5210 5207 5203 5200 5197 5194 5191 5190 5188 5187 5186 5185 5184 5183 5182 5181 5180 5179 5179 5179 5179 5179 5179 5179 5179 5179 5180 5180 5180 5180 5181 5182 5182 5183 5183 5183 5184 5184 5185 5185 5185 5185 5185 5185 5185 5184 5184 5184 5183 5184 5184 5184 5184 5184 5184 5185 5186 5187 5188 5189 5190 5191 5192 5194 5195 5197 5198 5199 5201 5202 5203 5204 5205 5206 5206 5207 5208 5209 5210 5211 5212 5213 5214 5215
5212 5208 5204 5201 5197 5194 5191 5189 5187 5185 5184 5183 5182 5180 5179 5178 5177 5176 5176 5175 5175 5175 5175 5175 5175 5175 5175 5175 5175 5176 5176 5176 5177 5178 5178 5179 5179 5180 5180 5180 5181 5181 5181 5181 5181 5181 5181 5181 5181 5180 5180 5180 5180 5180 5181 5181 5181 5182 5183 5184 5185 5186 5187 5188 5189 5190 5192 5193 5195 5196 5197 5199 5200 5201 5201 5202 5203 5204 5205 5206 5207 5208 5209 5210 5211
5208 5204 5201 5197 5194 5191 5189 5186 5184 5182 5180 5179 5178 5177 5175 5174 5173 5172 5172 5171 5171 5171 5171 5171 5171 5171 5171 5171 5171 5171 5172 5172 5173 5173 5174 5174 5175 5175 5176 5176 5176 5177 5177 5177 5177 5178 5178 5178 5177 5177 5177 5177 5177 5177 5177 5177 5178 5178 5179 5180 5181 5182 5183 5184 5185 5186 5187 5188 5189 5191 5192 5194 5195 5196 5197 5198 5199 5200 5201 5202 5203 5204 5204 5205 5207
5205 5201 5197 5193 5191 5188 5185 5183 5180 5178 5177 5175 5174 5173 5171 5170 5169 5168 5168 5167 5167 5167 5167 5167 5167 5167 5167 5167 5167 5167 5168 5168 5168 5169 5169 5170 5170 5171 5171 5172 5172 5172 5173 5173 5173 5174 5174 5174 5174 5174 5174 5174 5174 5174 5174 5174 5174 5175 5175 5176 5176 5177 5178 5179 5180 5181 5182 5183 5184 5185 5187 5188 5190 5191 5192 5193 5194 5195 5196 5197 5198 5199 5200 5201 5202
5202 5197 5193 5190 5186 5184 5182 5179 5177 5175 5173 5171 5170 5169 5167 5166 5165 5164 5163 5163 5163 5163 5163 5163 5163 5163 5163 5163 5163 5163 5163 5164 5164 5164 5165 5165 5166 5166 5167 5167 5167 5168 5168 5169 5169 5169 5170 5170 5170 5170 5170 5170 5170 5171 5171 5170 5171 5171 5171 5172 5172 5173 5174 5174 5175 5176 5177 5178 5179 5180 5181 5183 5184 5185 5187 5188 5189 5190 5191 5192 5193 5194 5195 5196 5197
5196 5193 5189 5186 5182 5179 5177 5175 5173 5171 5169 5167 5166 5164 5163 5162 5161 5160 5159 5159 5159 5158 5158 5158 5158 5158 5158 5158 5158 5159 5159 5159 5160 5160 5161 5161 5161 5162 5162 5162 5163 5163 5164 5164 5165 5165 5165 5166 5166 5166 5166 5167 5167 5167 5167 5167 5167 5167 5167 5168 5168 5169 5169 5170 5170 5171 5172 5173 5174 5175 5176 5177 5179 5180 5181 5182 5184 5185 5186 5187 5188 5190 5191 5192 5193
5190 5187 5184 5181 5178 5175 5172 5170 5167 5166 5164 5162 5161 5159 5158 5157 5156 5155 5155 5154 5154 5154 5154 5154 5154 5154 5154 5154 5154 5154 5154 5155 5155 5155 5156 5156 5157 5157 5158 5158 5158 5159 5159 5160 5160 5161 5161 5162 5162 5162 5163 5163 5163 5163 5163 5163 5164 5164 5164 5164 5164 5164 5165 5165 5166 5167 5167 5168 5169 5169 5170 5172 5173 5174 5176 5177 5178 5179 5180 5182 5183 5184 5186 5187 5188
5183 5180 5178 5175 5173 5170 5167 5164 5162 5160 5159 5157 5156 5154 5153 5152 5151 5150 5149 5149 5149 5149 5149 5149 5149 5149 5149 5149 5149 5149 5149 5150 5150 5151 5151 5152 5152 5153 5153 5153 5154 5154 5155 5155 5156 5156 5157 5157 5158 5158 5158 5159 5159 5159 5159 5160 5160 5160 5160 5160 5160 5160 5161 5161 5162 5162 5163 5163 5164 5165 5166 5166 5168 5169 5170 5171 5172 5174 5175 5176 5177 5179 5180 5181 5183
5175 5173 5171 5168 5166 5164 5162 5159 5157 5155 5153 5151 5150 5149 5148 5147 5146 5145 5144 5144 5143 5143 5143 5143 5144 5144 5144 5144 5144 5144 5144 5145 5145 5146 5146 5147 5147 5148 5148 5149 5149 5150 5150 5151 5151 5152 5152 5153 5153 5154 5154 5155 5155 5155 5155 5156 5156 5156 5156 5156 5157 5157 5157 5157 5158 5158 5159 5159 5160 5160 5161 5162 5163 5163 5164 5165 5167 5168 5169 5170 5171 5173 5174 5175 5177
5167 5165 5163 5161 5159 5157 5155 5154 5152 5150 5148 5146 5144 5143 5142 5141 5140 5140 5139 5138 5138 5138 5138 5138 5138 5138 5139 5139 5139 5139 5139 5139 5140 5140 5141 5141 5142 5143 5143 5144 5144 5145 5146 5146 5147 5147 5148 5148 5149 5149 5150 5150 5151 5151 5151 5152 5152 5152 5152 5153 5153 5153 5153 5154 5154 5154 5155 5155 5156 5156 5157 5157 5158 5159 5159 5160 5161 5162 5163 5164 5165 5166 5168 5169 5170
5159 5157 5155 5153 5152 5150 5148 5147 5145 5144 5142 5140 5139 5137 5136 5135 5134 5134 5133 5132 5132 5132 5132 5132 5132 5132 5133 5133 5133 5134 5134 5134 5135 5135 5136 5136 5137 5137 5138 5138 5139 5140 5140 5141 5142 5142 5143 5143 5144 5145 5145 5146 5146 5146 5147 5147 5147 5148 5148 5149 5149 5149 5149 5150 5150 5150 5150 5151 5151 5152 5152 5153 5153 5154 5154 5155 5156 5156 5157 5158 5159 5160 5161 5163 5164
5152 5149 5147 5145 5144 5142 5141 5139 5138 5137 5136 5134 5133 5132 5131 5129 5128 5128 5127 5126 5126 5126 5125 5126 5126 5126 5127 5127 5128 5128 5129 5129 5129 5130 5130 5131 5131 5132 5132 5133 5134 5134 5135 5136 5137 5137 5138 5139 5139 5140 5140 5141 5141 5142 5142 5143 5143 5143 5144 5144 5145 5145 5145 5145 5146 5146 5146 5147 5147 5147 5148 5148 5148 5149 5149 5150 5151 5151 5152 5153 5153 5154 5155 5156 5157
5144 5142 5139 5137 5135 5134 5133 5131 5130 5129 5128 5127 5126 5125 5124 5123 5122 5122 5121 5120 5120 5119 5119 5119 5120 5120 5120 5121 5122 5122 5123 5123 5124 5124 5125 5125 5126 5126 5127 5128 5128 5129 5130 5130 5131 5132 5133 5133 5134 5135 5135 5136 5136 5137 5137 5138 5138 5139 5139 5140 5140 5140 5141 5141 5141 5142 5142 5142 5142 5143 5143 5143 5144 5144 5145 5145 5145 5146 5146 5147 5148 5148 5149 5150 5151
5136 5134 5131 5129 5127 5126 5124 5123 5122 5121 5120 5119 5118 5117 5117 5116 5115 5114 5114 5114 5113 5113 5113 5113 5113 5113 5114 5114 5115 5116 5116 5117 5118 5118 5119 5119 5120 5121 5121 5122 5123 5123 5124 5125 5126 5126 5127 5128 5129 5129 5130 5131 5131 5132 5133 5133 5133 5134 5134 5135 5135 5136 5136 5137 5137 5137 5137 5138 5138 5138 5138 5139 5139 5139 5140 5140 5140 5141 5141 5142 5142 5143 5143 5144 5145
5128 5126 5123 5121 5119 5117 5116 5115 5114 5113 5112 5111 5110 5109 5108 5108 5107 5107 5106 5106 5106 5106 5106 5106 5106 5107 5107 5108 5108 5109 5110 5111 5111 5112 5113 5114 5114 5115 5116 5116 5117 5118 5119 5119 5120 5121 5122 5123 5123 5124 5125 5126 5126 5127 5127 5128 5128 5129 5129 5130 5130 5131 5131 5132 5132 5132 5133 5133 5133 5133 5133 5134 5134 5134 5135 5135 5135 5135 5136 5136 5137 5137 5138 5138 5139
5120 5117 5115 5112 5110 5109 5107 5106 5105 5104 5103 5102 5102 5101 5100 5100 5099 5099 5098 5098 5098 5098 5099 5099 5099 5100 5101 5101 5102 5103 5103 5104 5105 5106 5107 5107 5108 5109 5110 5111 5111 5112 5113 5114 5115 5115 5116 5117 5118 5119 5120 5120 5121 5121 5122 5123 5123 5124 5124 5124 5125 5125 5126 5126 5127 5127 5127 5128 5128 5128 5129 5129 5129 5129 5129 5130 5130 5130 5131 5131 5131 5132 5132 5132 5133